Vorticity
8 4 4 3 1 3 3 3 4 4 5 7 4 5 6 6 6 6 5 5 4 4 4 3 3 3 3 3 3 4 4 4 4 4 4 5 5 5 5 5 4 4 5
10 5 4 5 1 3 3 4 4 4 3 3 4 5 6 7 6 5 4 4 4 3 3 3 3 3 3 4 4 4 5 5 5 5 5 5 5 5 5 5 4 4 5
8 5 4 5 -0 4 3 4 4 4 3 4 4 6 6 6 5 5 4 4 3 3 3 3 4 4 4 4 5 5 6 6 7 6 6 6 6 6 5 7 5 5 5
10 5 4 4 2 4 3 4 4 4 4 4 5 6 6 6 5 4 4 4 4 3 4 4 4 4 5 5 6 8 9 10 9 8 7 7 6 6 6 4 6 5 9
15 5 5 5 3 4 4 4 4 4 4 4 5 6 6 5 5 5 5 4 4 5 5 4 4 6 7 9 9 11 10 8 7 6 6 6 5 7 7 6 6 3 5
16 12 4 4 3 3 4 5 4 4 4 4 5 5 6 6 6 5 5 5 5 5 4 4 7 10 9 8 9 8 6 6 7 7 7 6 6 6 7 7 7 7 5
18 9 4 4 4 3 4 5 5 4 4 5 5 5 6 6 6 6 6 6 5 4 4 6 9 9 8 9 8 8 6 4 4 6 9 9 5 5 6 7 7 7 6
12 11 5 4 4 4 4 6 5 4 4 4 5 6 6 6 6 6 6 6 5 4 5 8 9 9 8 9 12 6 2 2 5 5 9 9 11 8 6 6 6 8 10
9 10 5 5 4 4 5 5 4 4 4 5 5 5 5 6 6 7 6 6 5 5 5 8 8 6 4 5 4 5 6 7 7 8 8 8 5 6 6 6 6 8 8
7 9 7 7 3 5 7 5 4 4 4 4 4 5 5 6 7 7 6 6 6 5 6 6 6 6 6 6 6 7 7 7 6 7 7 9 10 5 5 5 5 6 6
6 7 8 4 4 6 7 5 4 5 4 4 4 5 4 5 6 6 6 6 6 6 6 5 5 5 6 6 7 7 7 8 7 7 7 7 8 10 10 7 5 5 5
6 8 6 6 4 7 5 5 4 5 4 4 5 5 4 5 6 7 6 6 6 6 6 6 5 5 6 6 6 6 6 6 7 7 8 8 8 8 8 10 10 9 7
6 6 6 6 5 7 5 5 4 4 4 4 4 4 4 5 6 6 6 6 6 6 6 5 5 5 6 5 5 6 5 5 6 6 6 7 7 8 8 9 10 9 9
6 6 7 6 6 6 4 4 4 5 4 5 4 4 4 5 5 6 6 6 6 6 6 6 6 6 5 5 5 5 5 5 6 6 6 6 6 7 7 8 8 8 8
3 7 7 6 6 5 4 4 5 4 5 4 4 4 5 5 5 5 6 6 6 6 6 6 5 5 5 5 5 5 5 6 6 6 6 6 6 7 7 7 7 7 7
-3 7 9 7 6 5 4 5 4 4 5 5 4 4 5 5 5 5 5 5 5 6 6 6 5 5 5 5 5 5 5 5 6 6 6 6 6 7 7 6 6 7 6
-1 7 13 7 5 5 5 4 4 5 5 4 4 4 5 5 6 6 6 6 6 6 6 6 5 5 5 5 6 5 6 5 5 6 5 6 5 6 5 6 7 7 7
7 -5 13 6 6 5 4 4 5 5 4 4 4 4 4 5 5 5 5 6 5 5 5 6 6 6 5 6 6 5 6 5 5 5 5 5 6 5 6 6 7 6 6
3 10 0 10 5 9 4 5 4 4 4 4 4 4 4 4 4 4 5 6 6 6 5 6 6 6 5 6 6 5 5 5 5 6 6 6 5 5 6 7 7 6 6
0 8 3 18 6 5 5 5 5 4 4 4 4 4 4 4 4 4 5 5 5 5 5 5 5 6 6 6 6 6 6 6 7 6 6 5 7 7 6 6 7 7 8
5 5 3 5 13 5 7 5 5 4 4 4 4 4 4 4 4 5 5 5 5 5 5 5 5 6 7 7 6 5 5 7 7 6 5 6 6 6 7 9 9 9 9
5 5 6 6 7 6 7 4 5 5 4 4 4 4 4 4 4 4 5 5 5 5 5 5 5 6 7 7 6 6 6 7 4 5 6 6 6 9 9 9 8 8 8
11 1 2 6 14 7 7 5 6 6 6 5 5 5 5 5 4 5 4 4 4 5 5 6 7 8 8 7 8 6 9 6 6 6 6 9 10 9 8 6 7 7 8
29 12 11 4 14 7 9 7 6 5 5 5 5 6 5 4 5 5 5 5 6 5 6 6 6 9 9 8 7 6 5 4 5 8 11 11 8 7 7 7 6 6 7
28 3 21 16 5 9 5 5 5 6 6 7 6 5 5 5 5 5 5 5 4 5 5 6 9 8 8 8 7 5 4 6 9 10 9 5 7 6 6 6 7 8 8
-3 4 -1 11 15 15 12 -6 1 6 7 7 5 4 0 4 5 6 6 5 5 7 6 7 8 7 7 6 5 4 6 10 10 9 7 7 5 6 7 8 8 8 8
Height
3152 3154 3155 3157 3157 3158 3159 3160 3161 3162 3162 3162 3163 3163 3162 3162 3162 3162 3162 3162 3163 3163 3164 3164 3163 3163 3163 3162 3162 3161 3160 3159 3158 3157 3157 3156 3156 3155 3155 3154 3153 3153 3152
3151 3153 3155 3156 3157 3158 3159 3160 3161 3162 3162 3162 3163 3163 3163 3163 3163 3163 3163 3163 3163 3164 3164 3164 3163 3163 3163 3163 3162 3161 3160 3159 3158 3157 3156 3156 3155 3155 3154 3154 3153 3153 3152
3149 3152 3154 3156 3157 3158 3159 3160 3161 3162 3163 3163 3163 3164 3164 3164 3164 3164 3164 3164 3164 3164 3164 3164 3164 3163 3162 3162 3161 3161 3160 3159 3158 3157 3156 3155 3155 3154 3153 3153 3153 3152 3152
3149 3151 3153 3155 3156 3158 3159 3160 3161 3162 3163 3163 3164 3164 3164 3164 3164 3164 3164 3165 3165 3164 3164 3164 3163 3162 3162 3161 3160 3160 3159 3158 3158 3157 3156 3155 3154 3153 3152 3152 3152 3151 3151
3147 3149 3152 3154 3156 3157 3159 3160 3161 3162 3163 3164 3164 3165 3165 3164 3165 3165 3165 3165 3165 3165 3165 3164 3163 3162 3161 3161 3160 3159 3158 3158 3158 3157 3156 3154 3153 3153 3152 3152 3151 3150 3149
3146 3149 3151 3154 3155 3157 3159 3160 3161 3162 3163 3164 3165 3165 3165 3165 3165 3165 3165 3165 3165 3165 3165 3164 3163 3162 3161 3160 3160 3159 3158 3158 3157 3156 3155 3154 3152 3152 3152 3151 3150 3149 3148
3146 3148 3150 3153 3155 3157 3159 3160 3161 3162 3163 3164 3164 3165 3165 3165 3166 3166 3166 3166 3165 3165 3165 3164 3163 3162 3161 3160 3159 3159 3158 3157 3156 3155 3154 3154 3152 3151 3151 3149 3149 3148 3147
3145 3146 3149 3151 3154 3156 3158 3160 3161 3162 3163 3164 3165 3165 3165 3166 3166 3166 3166 3166 3166 3166 3165 3164 3163 3162 3161 3160 3159 3159 3158 3157 3155 3153 3153 3152 3152 3151 3150 3149 3148 3147 3145
3143 3145 3148 3150 3153 3155 3157 3159 3161 3162 3163 3164 3164 3165 3166 3165 3166 3166 3166 3166 3166 3165 3165 3164 3163 3162 3161 3160 3159 3158 3157 3156 3154 3153 3152 3152 3151 3150 3149 3148 3147 3145 3144
3141 3144 3146 3149 3151 3154 3156 3159 3160 3161 3162 3163 3164 3165 3165 3165 3165 3166 3166 3165 3165 3165 3164 3163 3162 3162 3161 3160 3159 3158 3156 3155 3153 3151 3150 3150 3150 3149 3148 3146 3145 3144 3142
3140 3142 3144 3147 3149 3152 3154 3158 3159 3160 3161 3162 3164 3165 3165 3165 3165 3165 3165 3165 3165 3164 3164 3163 3162 3161 3161 3159 3158 3157 3155 3154 3152 3151 3149 3148 3148 3147 3146 3144 3143 3142 3141
3137 3139 3142 3144 3147 3150 3152 3157 3158 3159 3160 3161 3164 3164 3165 3165 3165 3165 3165 3165 3164 3164 3163 3163 3162 3161 3160 3159 3157 3155 3154 3152 3151 3150 3148 3147 3146 3145 3144 3142 3141 3140 3138
3135 3137 3140 3143 3145 3148 3151 3155 3157 3158 3159 3161 3163 3163 3164 3164 3165 3165 3164 3164 3164 3163 3163 3162 3161 3161 3159 3157 3156 3154 3152 3151 3150 3149 3147 3145 3144 3143 3142 3141 3139 3137 3136
3133 3135 3138 3141 3144 3146 3149 3152 3155 3157 3158 3160 3160 3162 3164 3164 3164 3164 3164 3163 3163 3162 3162 3161 3160 3160 3159 3157 3156 3154 3152 3150 3149 3148 3146 3144 3142 3141 3140 3138 3137 3135 3133
3128 3132 3136 3138 3141 3144 3146 3150 3153 3154 3158 3159 3159 3160 3162 3163 3163 3163 3163 3162 3161 3161 3161 3160 3159 3159 3158 3156 3155 3154 3152 3149 3148 3147 3145 3143 3141 3139 3138 3136 3134 3133 3131
3125 3129 3132 3135 3139 3142 3145 3147 3150 3152 3155 3157 3157 3158 3161 3161 3161 3161 3161 3160 3160 3159 3159 3158 3158 3157 3156 3155 3154 3152 3151 3148 3146 3144 3143 3141 3139 3137 3135 3134 3132 3131 3129
3108 3122 3129 3132 3136 3139 3142 3144 3147 3150 3152 3155 3155 3157 3158 3159 3159 3159 3159 3159 3158 3158 3157 3156 3156 3155 3154 3153 3152 3150 3148 3146 3144 3142 3140 3139 3136 3134 3133 3131 3130 3128 3126
3116 3119 3126 3130 3132 3137 3140 3142 3144 3148 3149 3151 3153 3154 3155 3157 3157 3157 3157 3157 3156 3155 3155 3155 3154 3152 3151 3150 3148 3147 3146 3144 3142 3140 3138 3136 3134 3132 3130 3128 3127 3124 3122
3115 3119 3122 3127 3130 3132 3136 3139 3142 3145 3146 3147 3149 3151 3152 3154 3154 3155 3155 3155 3155 3153 3153 3152 3151 3150 3148 3147 3145 3144 3142 3141 3140 3138 3136 3133 3131 3128 3127 3125 3123 3121 3119
3111 3115 3120 3123 3126 3129 3133 3136 3139 3141 3143 3145 3147 3148 3150 3151 3152 3152 3153 3152 3151 3150 3149 3148 3147 3146 3145 3143 3141 3140 3139 3138 3136 3134 3132 3129 3127 3125 3123 3121 3119 3117 3115
3107 3111 3115 3120 3123 3126 3129 3132 3135 3138 3140 3142 3144 3145 3147 3148 3149 3149 3149 3148 3147 3146 3145 3145 3144 3142 3141 3139 3137 3136 3135 3133 3132 3130 3127 3124 3123 3121 3118 3116 3114 3112 3111
3103 3107 3111 3116 3120 3123 3125 3128 3131 3134 3136 3139 3140 3142 3143 3145 3145 3146 3145 3144 3144 3143 3142 3141 3140 3138 3136 3134 3133 3131 3130 3130 3128 3126 3122 3119 3116 3115 3113 3111 3109 3107 3105
3099 3104 3109 3112 3117 3120 3121 3124 3127 3131 3133 3135 3136 3138 3139 3141 3141 3142 3140 3140 3140 3139 3138 3136 3135 3134 3132 3130 3129 3128 3125 3123 3121 3119 3118 3114 3112 3110 3108 3106 3104 3103 3101
3095 3100 3104 3107 3111 3115 3117 3121 3124 3126 3128 3130 3132 3134 3135 3137 3137 3137 3136 3136 3136 3134 3133 3132 3130 3129 3127 3126 3125 3123 3121 3118 3115 3114 3111 3111 3108 3106 3103 3100 3098 3097 3095
3094 3098 3101 3106 3109 3111 3112 3117 3120 3123 3124 3126 3128 3129 3131 3131 3132 3132 3132 3131 3130 3129 3127 3126 3125 3123 3122 3120 3119 3118 3116 3114 3110 3108 3107 3103 3102 3100 3098 3096 3092 3090 3089
3091 3090 3097 3100 3105 3107 3109 3111 3114 3119 3120 3122 3124 3125 3125 3126 3127 3127 3126 3125 3124 3123 3122 3120 3119 3117 3116 3115 3113 3111 3109 3107 3104 3103 3100 3099 3096 3096 3093 3091 3088 3085 3082